Change the Weather History Date:

Friday, March 9, 2012

  Actual Average Record
Temperature  
Mean Temperature 33 °F 34 °F  
Max Temperature 40 °F 43 °F 69 °F (2000)
Min Temperature 25 °F 26 °F -3 °F (1984)
Degree Days  
Heating Degree Days 32 31  
Month to date heating degree days 242 288  
Since 1 July heating degree days 4160 4913  
Cooling Degree Days 0 0  
Month to date cooling degree days 0 0  
Year to date cooling degree days 0 0  
Moisture  
Dew Point 22 °F    
Average Humidity 68    
Maximum Humidity 92    
Minimum Humidity 44    
Precipitation  
Precipitation 0.00 in 0.10 in 1.71 in (1964)
Month to date precipitation 0.90 0.85  
Year to date precipitation 7.03 6.11  
Snow  
Snow 0.00 in 0.40 in - ()
Month to date snowfall 1.5 3.0  
Since 1 July snowfall 33.7 40.9  
Snow Depth 0.00 in    
Sea Level Pressure  
Sea Level Pressure 30.34 in    
Wind  
Wind Speed 12 mph (WNW)    
Max Wind Speed 24 mph    
Max Gust Speed 32 mph    
Visibility 10 miles    
Events      
T = Trace of Precipitation, MM = Missing Value Source: NWS Daily Summary

Daily Weather History Graph

Daily Weather History Graph

Search for Another Location

Airport or City:

Trip Planner

Search our weather history database for the weather conditions in past years. The results will help you decide how hot, cold, wet, or windy it might be!

Date:

Astronomy

Mar. 09, 2012 Rise Set
Actual Time 6:50 AM EST 6:30 PM EST
Civil Twilight 6:23 AM EST 6:58 PM EST
Nautical Twilight 5:51 AM EST 7:29 PM EST
Astronomical Twilight 5:19 AM EST 8:01 PM EST
Moon 8:30 PM EST (3/9) 7:07 AM EST (3/9)
Length of Visible Light 12h 34m
Length of Day
11h 40m
Full, 98% of the Moon is Illuminated
Mar 9
Full
Mar 14
Last Quarter
Mar 22
New
Mar 30
First Quarter
Apr 6
Full

Hourly Weather History & Observations

Time (EST) Temp. Windchill Dew Point Humidity Pressure Visibility Wind Dir Wind Speed Gust Speed Precip Events Conditions
12:52 AM 28.0 °F 21.7 °F 25.0 °F 88% 30.21 in 10.0 mi SSW 5.8 mph - N/A   Clear
1:52 AM 30.9 °F 24.3 °F 28.0 °F 89% 30.21 in 10.0 mi SSW 6.9 mph - N/A   Overcast
2:52 AM 33.1 °F 24.9 °F 26.1 °F 75% 30.20 in 10.0 mi WSW 10.4 mph 18.4 mph N/A   Partly Cloudy
3:52 AM 30.9 °F 22.8 °F 25.0 °F 79% 30.20 in 10.0 mi SW 9.2 mph - N/A   Clear
4:52 AM 32.0 °F 22.5 °F 25.0 °F 75% 30.20 in 10.0 mi WSW 12.7 mph 17.3 mph N/A   Clear
5:52 AM 32.0 °F 23.6 °F 25.0 °F 75% 30.20 in 10.0 mi WSW 10.4 mph - N/A   Clear
6:52 AM 32.0 °F 23.6 °F 25.0 °F 75% 30.21 in 10.0 mi WSW 10.4 mph - N/A   Overcast
7:52 AM 33.1 °F 24.9 °F 25.0 °F 72% 30.22 in 10.0 mi WSW 10.4 mph - N/A   Scattered Clouds
8:52 AM 34.0 °F 24.6 °F 26.1 °F 73% 30.25 in 10.0 mi West 13.8 mph 27.6 mph N/A   Overcast
9:52 AM 33.1 °F 23.9 °F 24.1 °F 70% 30.29 in 10.0 mi WNW 12.7 mph 27.6 mph N/A   Mostly Cloudy
10:52 AM 34.0 °F 23.0 °F 21.0 °F 59% 30.31 in - WNW 18.4 mph 27.6 mph N/A   Mostly Cloudy
11:52 AM 34.0 °F 22.4 °F 21.0 °F 59% 30.35 in 10.0 mi NW 20.7 mph 28.8 mph N/A   Mostly Cloudy
12:52 PM 37.0 °F 28.5 °F 23.0 °F 57% 30.37 in 10.0 mi WNW 13.8 mph 24.2 mph N/A   Overcast
1:52 PM 35.1 °F 24.5 °F 19.9 °F 54% 30.37 in 10.0 mi WNW 18.4 mph 27.6 mph N/A   Mostly Cloudy
2:52 PM 39.0 °F 31.8 °F 23.0 °F 53% 30.37 in 10.0 mi WNW 11.5 mph 28.8 mph N/A   Mostly Cloudy
3:52 PM 37.0 °F 26.4 °F 18.0 °F 46% 30.40 in 10.0 mi WNW 20.7 mph 28.8 mph N/A   Partly Cloudy
4:52 PM 35.1 °F 25.5 °F 19.9 °F 54% 30.41 in 10.0 mi WNW 15.0 mph 25.3 mph N/A   Partly Cloudy
5:52 PM 33.1 °F 22.6 °F 18.0 °F 54% 30.43 in 10.0 mi NW 16.1 mph 23.0 mph N/A   Clear
6:52 PM 30.9 °F 22.2 °F 18.0 °F 59% 30.44 in 10.0 mi NW 10.4 mph - N/A   Clear
7:52 PM 30.0 °F 21.1 °F 17.1 °F 59% 30.46 in 10.0 mi NW 10.4 mph - N/A   Clear
8:52 PM 28.0 °F 17.5 °F 17.1 °F 63% 30.48 in 10.0 mi NW 12.7 mph - N/A   Clear
9:52 PM 27.0 °F 18.7 °F 16.0 °F 63% 30.50 in 10.0 mi NW 8.1 mph - N/A   Clear
10:52 PM 26.1 °F 15.6 °F 16.0 °F 66% 30.50 in 10.0 mi NNW 11.5 mph - N/A   Clear
11:52 PM 25.0 °F 16.3 °F 16.0 °F 69% 30.51 in 10.0 mi NNW 8.1 mph - N/A   Clear